Temperature
1 2 3 2 2 2 2 2 2 3 3 3 3 3 3 3 2 2 2 2 2 2 2 2 2 2 2 3 3 3 3 3 3 3 3 4 4 4 4 4 4 5 5 5
1 2 2 2 2 2 2 2 2 2 2 3 3 3 2 2 1 1 1 1 1 1 1 1 1 1 2 2 2 2 3 3 3 3 3 3 3 3 4 4 4 4 4 4
1 2 2 1 1 1 1 1 1 1 1 2 2 2 1 1 1 0 0 -0 0 0 0 1 1 1 1 2 2 2 2 2 2 2 3 2 3 3 3 3 3 4 4 4
0 0 -0 1 2 2 1 1 1 1 1 1 1 1 1 1 -0 -1 -1 -1 -0 -0 0 0 0 1 1 1 1 1 2 2 2 2 2 2 2 2 2 3 3 3 3 3
-0 -0 1 1 1 0 -0 -1 -0 -0 -0 0 1 1 0 -0 -1 -1 -1 -1 -1 -0 -0 -0 0 0 0 1 1 1 1 1 1 1 2 2 2 2 2 2 2 2 3 3
-1 -0 0 1 -0 0 -0 -1 -1 -0 -1 -1 -1 -2 -1 -1 -1 -1 -1 -1 -1 -1 -1 -1 -1 -0 0 0 1 1 1 1 1 1 1 1 1 1 1 1 2 2 2 2
-1 -1 -1 -0 -1 -0 -1 -2 -1 -1 -1 -1 -2 -2 -2 -2 -2 -2 -2 -1 -1 -1 -1 -1 -1 -1 -0 -0 0 0 0 0 1 1 1 1 1 1 1 1 1 1 2 2
-2 -2 -1 -1 -2 -2 -2 -1 -1 -1 -1 -2 -2 -2 -2 -3 -2 -2 -2 -2 -2 -2 -2 -2 -1 -1 -1 -1 -1 -0 -0 0 0 0 0 0 0 0 1 1 1 1 1 1
-2 -1 -0 -1 -1 -1 -1 -2 -2 -2 -2 -2 -3 -3 -3 -3 -3 -3 -3 -3 -2 -2 -2 -2 -2 -2 -1 -1 -1 -1 -1 -0 -0 -0 -0 -0 -0 -0 -0 -0 -0 0 0 1
-2 -2 -1 -1 -1 -1 -2 -2 -2 -3 -3 -3 -3 -3 -4 -4 -4 -3 -3 -3 -3 -3 -3 -2 -2 -2 -2 -2 -2 -1 -1 -1 -1 -1 -1 -1 -1 -1 -1 -1 -0 -0 -0 0
-3 -3 -2 -1 -1 -2 -2 -3 -3 -3 -3 -4 -4 -4 -4 -4 -4 -4 -4 -3 -3 -3 -3 -3 -3 -2 -2 -2 -2 -2 -2 -2 -1 -1 -1 -1 -1 -1 -1 -1 -1 -1 -1 -1
-3 -2 -3 -2 -2 -2 -3 -3 -3 -3 -4 -4 -4 -4 -4 -4 -4 -4 -4 -4 -4 -3 -3 -3 -3 -3 -3 -3 -3 -2 -2 -2 -2 -2 -2 -2 -2 -1 -1 -1 -1 -1 -1 -1
-2 -2 -2 -2 -2 -3 -3 -3 -4 -4 -4 -4 -4 -4 -4 -4 -4 -4 -4 -4 -4 -4 -4 -3 -3 -3 -3 -3 -3 -3 -3 -3 -3 -3 -2 -2 -2 -2 -2 -2 -2 -2 -1 -1
-2 -2 -3 -3 -3 -3 -3 -4 -4 -4 -4 -4 -4 -4 -4 -4 -4 -4 -4 -4 -4 -4 -4 -4 -4 -4 -4 -4 -3 -3 -3 -3 -3 -3 -3 -3 -3 -2 -2 -2 -2 -2 -2 -2
-3 -3 -3 -3 -4 -4 -4 -4 -4 -5 -5 -5 -5 -5 -5 -5 -4 -4 -4 -4 -4 -4 -4 -4 -4 -4 -4 -4 -4 -4 -3 -3 -3 -3 -3 -3 -3 -3 -3 -3 -3 -2 -2 -2
-4 -4 -4 -4 -4 -4 -4 -5 -5 -5 -5 -5 -5 -5 -5 -5 -5 -5 -5 -5 -5 -4 -4 -4 -4 -4 -4 -4 -4 -4 -4 -4 -4 -4 -4 -4 -4 -3 -3 -3 -3 -3 -3 -3
-5 -5 -5 -5 -5 -5 -5 -5 -5 -5 -5 -5 -5 -5 -5 -5 -5 -5 -5 -5 -5 -5 -5 -5 -5 -5 -5 -5 -5 -5 -4 -4 -4 -4 -4 -4 -4 -4 -4 -4 -3 -3 -3 -3
-4 -4 -4 -5 -5 -5 -5 -5 -5 -5 -6 -6 -6 -6 -6 -6 -5 -5 -5 -5 -5 -5 -5 -5 -5 -5 -5 -5 -5 -5 -5 -5 -5 -5 -5 -5 -4 -4 -4 -4 -4 -4 -3 -3
-5 -5 -5 -5 -5 -5 -5 -5 -5 -6 -6 -6 -6 -6 -6 -6 -6 -6 -6 -6 -6 -6 -6 -6 -6 -6 -5 -5 -5 -5 -5 -5 -5 -5 -5 -5 -5 -5 -5 -5 -4 -4 -4 -4
-5 -5 -5 -5 -5 -5 -5 -6 -6 -6 -6 -6 -6 -6 -6 -6 -6 -6 -6 -6 -6 -6 -6 -6 -6 -6 -6 -6 -6 -6 -6 -6 -6 -6 -6 -5 -5 -5 -5 -5 -5 -5 -4 -4
-5 -5 -5 -5 -6 -6 -6 -6 -6 -6 -6 -6 -6 -6 -6 -6 -6 -7 -7 -7 -7 -7 -6 -6 -6 -6 -6 -6 -6 -6 -6 -6 -6 -6 -6 -6 -6 -6 -6 -6 -5 -5 -5 -5
-5 -5 -6 -6 -6 -6 -6 -6 -6 -6 -6 -6 -6 -6 -7 -7 -7 -7 -7 -7 -7 -7 -7 -7 -7 -7 -7 -7 -6 -6 -6 -7 -7 -6 -6 -6 -6 -6 -6 -6 -6 -6 -5 -5
-6 -6 -6 -6 -6 -6 -6 -6 -6 -6 -6 -6 -7 -7 -7 -7 -7 -7 -7 -7 -7 -7 -7 -7 -7 -7 -7 -7 -7 -7 -7 -7 -7 -7 -7 -7 -7 -7 -7 -6 -6 -6 -6 -6
-6 -6 -6 -6 -6 -6 -6 -6 -7 -7 -7 -7 -7 -7 -7 -7 -7 -7 -7 -7 -7 -7 -7 -7 -7 -7 -7 -7 -7 -7 -7 -7 -7 -7 -7 -7 -7 -7 -7 -7 -7 -7 -6 -6
-6 -6 -6 -7 -7 -7 -7 -7 -7 -7 -7 -7 -7 -7 -7 -7 -7 -7 -8 -8 -8 -8 -8 -8 -8 -8 -8 -7 -7 -8 -8 -8 -8 -7 -7 -7 -7 -7 -7 -7 -7 -7 -7 -7
-7 -7 -7 -7 -7 -7 -7 -7 -7 -7 -7 -7 -7 -7 -8 -8 -8 -8 -8 -8 -8 -8 -8 -8 -8 -8 -8 -8 -8 -8 -8 -8 -8 -8 -8 -8 -8 -8 -7 -7 -7 -7 -7 -7
-7 -7 -7 -7 -7 -7 -7 -8 -8 -8 -8 -8 -8 -8 -8 -8 -8 -8 -8 -8 -8 -8 -8 -8 -8 -8 -8 -8 -8 -8 -8 -8 -8 -8 -8 -8 -8 -8 -8 -8 -7 -7 -7 -7
Wind_Speed
9 9 6 6 6 5 5 5 5 7 7 8 8 7 6 7 7 7 7 7 6 5 4 4 4 3 3 2 1 1 1 0 0 1 1 1 1 1 0 0 1 2 2 2
6 7 6 7 7 7 7 8 8 9 9 7 8 6 6 7 7 7 7 6 6 6 5 4 4 4 3 3 2 1 1 1 1 1 2 1 1 1 1 0 0 1 2 2
4 4 5 6 6 6 4 3 4 6 7 8 8 8 7 6 7 6 7 7 6 5 5 4 4 3 3 3 2 1 1 1 2 2 2 2 2 1 1 1 1 1 1 2
4 4 5 4 1 1 3 3 3 5 7 7 7 7 5 5 6 7 8 7 6 5 4 4 3 3 3 2 1 1 1 1 1 1 1 1 2 1 1 1 1 0 0 1
2 4 6 3 1 1 2 4 3 5 7 8 9 6 3 6 7 6 6 5 4 4 3 3 3 3 3 2 2 2 1 1 1 1 1 1 1 1 1 0 0 0 1 1
3 3 4 2 2 2 1 4 4 4 5 7 7 4 4 8 8 7 7 5 5 4 3 3 3 3 3 3 3 3 2 2 1 0 0 0 1 1 1 0 0 0 0 1
5 5 5 2 1 2 1 5 5 4 4 4 3 4 5 7 7 6 6 5 5 4 3 3 3 3 2 3 3 3 2 2 2 1 1 0 1 1 1 1 0 0 0 0
3 5 6 1 3 2 3 3 4 5 4 4 4 5 6 6 6 6 6 6 5 4 3 3 3 3 2 3 3 3 3 2 2 2 1 1 1 1 1 1 0 0 0 1
5 5 2 3 3 2 2 4 4 4 5 4 4 5 5 5 5 5 5 5 4 4 3 3 3 3 2 3 3 3 3 3 3 3 2 1 1 1 1 1 0 1 1 1
5 6 4 3 3 2 3 3 4 4 4 4 4 5 5 5 5 5 4 4 4 3 3 3 3 3 2 2 2 2 2 3 3 3 2 2 2 1 1 1 1 1 1 1
6 6 5 4 3 3 3 4 4 4 4 4 4 4 4 4 4 4 4 4 3 3 3 3 3 3 3 3 2 2 2 3 3 3 2 2 2 2 2 1 1 2 1 1
6 3 3 4 4 3 3 4 4 4 4 3 3 4 4 4 4 4 4 3 3 3 2 3 3 3 3 3 2 2 2 3 2 2 2 2 2 3 4 3 4 3 3 2
4 2 3 4 4 3 3 4 3 3 3 4 4 3 3 4 3 3 3 3 3 3 2 2 2 3 3 2 2 2 1 2 2 2 2 2 2 2 2 4 4 4 4 4
3 2 3 3 3 3 3 3 2 3 3 3 3 3 3 3 3 3 3 3 3 3 2 2 2 3 3 2 2 2 2 2 2 1 2 2 2 2 1 2 3 3 4 4
4 3 4 4 3 2 2 2 2 3 3 3 3 3 2 2 3 3 3 3 2 2 3 2 3 3 3 2 2 2 2 1 1 2 2 2 2 2 2 2 2 2 3 4
3 3 3 3 3 2 2 2 3 3 3 3 3 3 3 2 2 3 2 2 2 3 3 3 3 3 3 2 2 2 2 3 3 2 2 2 2 2 2 2 2 2 2 2
2 3 3 3 4 3 3 3 3 3 3 3 3 3 3 2 2 3 3 2 2 2 3 2 3 3 3 2 1 1 1 2 4 3 2 2 2 2 2 2 2 2 2 3
5 5 4 4 4 4 4 3 3 3 3 3 2 2 2 2 2 3 3 3 2 3 3 3 2 3 2 2 1 1 1 1 2 2 2 2 2 2 2 2 2 2 3 3
2 2 3 3 3 3 3 3 3 2 2 2 2 2 2 2 2 2 2 2 2 3 3 3 4 3 2 2 2 1 1 1 2 2 2 2 3 2 2 2 2 2 2 2
1 1 1 2 2 2 2 2 2 2 2 1 1 1 2 2 2 2 2 2 2 2 2 3 3 2 2 2 2 1 1 1 1 2 2 2 2 2 2 3 3 2 2 2
2 1 1 1 1 1 1 1 1 2 1 1 1 1 2 2 2 2 2 2 3 2 3 4 2 2 2 2 2 1 1 1 1 1 1 2 2 2 2 2 3 2 2 2
2 2 2 1 1 1 1 1 1 1 1 1 1 1 2 2 2 2 2 2 2 4 3 2 1 2 3 2 1 1 1 1 1 1 1 2 2 2 2 2 2 2 2 2
2 1 1 1 1 1 1 1 1 1 1 1 2 2 2 2 2 2 3 2 2 4 3 2 3 3 3 2 1 1 1 1 1 1 1 2 2 2 2 2 2 2 2 2
1 1 1 1 0 1 1 1 1 1 1 2 2 2 2 2 2 2 2 4 4 4 2 3 4 3 3 1 1 1 1 1 1 1 1 2 2 2 2 2 2 2 2 2
1 1 1 1 1 1 1 1 1 1 1 1 1 1 1 1 2 2 2 2 4 4 2 3 4 4 2 1 1 1 1 1 1 1 1 1 1 2 2 2 2 2 2 2
2 1 1 1 1 1 1 1 1 1 1 1 2 2 1 1 1 1 1 2 3 3 3 2 2 3 2 2 2 1 1 2 2 1 1 1 2 2 2 2 2 2 2 2
2 1 1 0 0 1 1 1 1 1 1 1 2 2 1 1 1 1 2 2 2 2 2 2 2 2 2 2 2 2 1 1 1 1 1 1 1 1 2 2 2 2 2 2
Wind_Direction
273 280 282 281 284 269 248 249 256 279 281 307 327 336 352 4 6 7 8 8 9 15 16 16 21 21 15 10 21 33 77 66 6 26 56 70 67 52 36 185 162 160 168 181
275 261 270 281 286 274 260 261 264 278 287 316 334 349 6 10 4 1 1 1 3 9 12 10 11 12 6 357 359 23 32 19 32 53 51 51 57 70 60 45 92 130 154 177
278 313 317 279 266 248 245 254 265 270 293 330 338 345 351 359 1 356 355 1 1 360 359 358 2 7 355 342 351 22 35 27 44 44 39 31 29 55 65 73 76 82 153 170
287 324 262 240 9 281 246 267 298 306 327 338 332 328 349 16 4 357 354 352 349 349 346 349 1 3 345 348 357 23 43 52 50 38 36 34 36 29 35 57 101 90 188 182
267 269 269 262 329 4 267 282 323 312 319 330 333 332 354 16 11 354 343 339 334 336 338 350 4 356 350 358 14 40 42 33 13 28 40 40 39 18 12 113 133 265 229 184
249 258 263 284 21 6 3 282 339 328 319 331 346 337 317 347 348 344 343 341 341 349 1 7 1 2 11 10 25 22 5 348 343 19 77 48 42 16 350 337 327 234 260 205
241 251 266 299 354 66 144 276 330 334 324 330 317 290 306 328 336 339 341 344 350 358 3 1 2 11 13 13 7 353 351 351 1 14 35 64 57 31 19 357 338 330 336 353
214 232 254 84 110 180 249 319 322 322 326 318 311 315 324 329 334 342 344 349 355 359 357 1 7 13 10 358 351 357 360 6 6 5 6 20 61 37 25 7 323 326 358 4
213 227 258 167 200 239 298 302 307 315 317 311 310 311 317 323 329 335 338 343 347 351 353 4 7 9 2 341 354 6 11 11 7 6 16 23 37 33 17 8 348 307 287 267
260 262 267 239 247 276 301 300 306 313 310 306 299 304 312 318 322 328 333 337 340 347 353 360 3 359 350 345 0 16 12 7 7 11 14 15 2 359 10 345 317 295 291 283
251 273 290 257 248 277 295 297 299 303 301 295 296 302 309 314 317 321 324 329 331 335 341 345 350 351 353 353 8 23 15 5 4 7 8 10 7 4 349 338 311 290 281 269
238 235 237 275 291 285 282 285 290 293 302 310 303 298 306 309 312 314 317 326 328 330 334 336 346 346 347 350 2 25 12 4 1 2 2 4 9 8 6 354 353 345 331 306
239 279 268 280 293 279 268 281 288 290 292 302 307 304 304 307 313 316 319 324 325 325 327 334 341 341 342 350 2 15 2 347 347 349 349 350 350 356 353 355 3 358 355 349
240 258 272 271 284 294 289 290 297 298 299 300 305 311 314 313 318 320 317 317 320 328 333 336 344 341 341 352 4 3 353 345 345 341 341 342 338 335 334 339 345 347 349 348
232 234 244 269 280 293 308 317 312 304 306 311 316 318 319 315 315 316 318 322 333 340 339 346 349 339 343 357 5 358 351 346 347 342 336 333 338 341 338 337 329 327 334 343
257 265 255 257 265 279 294 290 284 286 293 300 311 315 313 309 309 312 321 338 350 334 334 340 335 331 342 355 2 359 349 342 344 341 339 344 350 347 340 336 330 330 333 332
214 243 250 259 265 266 265 267 268 275 284 291 298 308 315 320 323 326 332 335 330 319 321 322 324 334 340 343 346 339 338 340 345 348 347 342 338 333 330 331 328 330 326 326
218 231 237 243 248 256 264 270 272 275 279 285 295 300 299 301 303 310 317 324 332 334 328 329 335 336 338 339 343 339 338 341 344 340 340 340 337 336 334 331 330 328 325 329
231 236 248 254 249 243 252 260 269 272 278 277 277 279 284 289 288 298 314 329 323 318 327 338 336 343 333 333 348 354 352 345 343 341 339 336 343 348 344 334 329 328 332 341
235 239 254 267 264 246 251 266 272 272 278 280 287 299 308 307 307 310 319 308 293 290 305 321 328 327 326 330 345 359 342 330 330 335 339 340 338 339 338 336 339 340 340 343
222 230 240 251 275 277 256 259 260 269 288 288 268 274 289 303 313 312 310 306 314 318 319 322 331 323 324 336 347 344 318 313 314 316 318 320 324 331 335 337 338 340 341 345
218 224 233 237 248 280 291 285 268 266 280 290 294 289 296 309 316 312 291 274 300 318 329 321 312 310 322 340 355 332 323 315 311 309 310 311 312 317 323 330 331 333 341 344
217 222 222 223 234 262 295 292 265 257 264 271 275 277 277 284 292 292 303 306 306 313 324 307 303 312 326 351 350 324 312 309 307 305 304 304 305 304 307 315 322 327 338 340
204 215 229 244 217 225 263 281 291 285 270 275 272 265 270 291 305 293 285 311 319 320 317 306 313 324 341 10 339 305 287 283 288 296 305 305 306 302 303 309 316 323 326 327
190 207 215 196 210 230 242 271 301 302 299 297 297 295 289 280 281 301 308 312 315 323 323 322 331 336 352 346 314 294 289 276 276 283 285 298 306 309 312 315 316 318 318 319
191 200 211 224 230 235 233 239 273 290 308 316 320 320 324 320 307 310 312 318 322 327 331 330 334 338 351 340 328 323 319 309 309 308 299 298 304 307 309 316 323 325 318 311
182 191 194 211 229 202 201 225 248 270 281 280 301 312 322 332 338 338 337 336 335 338 342 343 345 346 342 339 335 334 335 334 325 313 311 307 307 306 310 314 315 309 306 303
Height
1491 1486 1485 1484 1482 1480 1481 1479 1478 1469 1466 1465 1462 1460 1459 1457 1455 1453 1452 1451 1450 1449 1448 1448 1447 1447 1447 1446 1447 1447 1447 1448 1449 1449 1450 1451 1452 1453 1454 1455 1456 1457 1458 1459
1490 1482 1481 1481 1479 1477 1477 1475 1473 1469 1467 1465 1463 1461 1459 1458 1456 1455 1454 1453 1451 1450 1449 1448 1447 1446 1446 1446 1445 1446 1446 1447 1447 1448 1448 1449 1450 1450 1452 1452 1453 1454 1455 1456
1489 1482 1481 1482 1477 1475 1474 1473 1472 1472 1470 1465 1463 1461 1460 1459 1457 1456 1455 1453 1451 1450 1449 1448 1447 1446 1445 1445 1445 1445 1445 1445 1446 1446 1447 1448 1448 1449 1449 1450 1450 1451 1453 1454
1491 1489 1490 1478 1472 1471 1472 1472 1471 1469 1468 1466 1465 1462 1461 1460 1458 1456 1455 1453 1451 1450 1448 1447 1446 1446 1445 1445 1444 1444 1444 1444 1445 1445 1446 1446 1446 1447 1447 1447 1448 1449 1450 1452
1494 1490 1479 1473 1472 1473 1474 1473 1470 1469 1468 1466 1463 1460 1459 1459 1458 1457 1455 1453 1451 1450 1448 1447 1446 1445 1444 1444 1443 1443 1443 1443 1444 1444 1444 1444 1445 1445 1446 1446 1447 1448 1448 1449
1493 1490 1483 1475 1473 1471 1474 1474 1469 1468 1468 1467 1464 1464 1462 1460 1458 1456 1454 1452 1450 1448 1447 1446 1445 1444 1443 1443 1442 1442 1442 1443 1443 1443 1443 1443 1443 1444 1444 1445 1445 1446 1446 1447
1493 1490 1481 1476 1473 1472 1479 1477 1470 1469 1468 1467 1466 1466 1464 1460 1457 1455 1453 1451 1449 1447 1446 1445 1444 1443 1443 1442 1442 1442 1442 1442 1442 1442 1442 1442 1442 1442 1442 1443 1443 1444 1444 1445
1490 1490 1483 1475 1474 1476 1475 1471 1470 1468 1467 1466 1465 1463 1461 1458 1456 1453 1451 1449 1448 1446 1445 1445 1444 1443 1442 1441 1441 1441 1441 1441 1441 1441 1441 1441 1440 1440 1441 1441 1441 1442 1442 1443
1484 1481 1473 1472 1472 1471 1471 1470 1468 1466 1465 1464 1463 1461 1459 1457 1455 1452 1450 1448 1447 1446 1445 1444 1443 1442 1441 1441 1441 1440 1440 1439 1439 1439 1439 1439 1439 1439 1439 1439 1440 1440 1441 1441
1478 1472 1470 1470 1469 1469 1468 1467 1466 1465 1463 1462 1460 1459 1457 1455 1453 1451 1449 1448 1447 1446 1444 1443 1443 1442 1441 1440 1440 1439 1439 1438 1438 1438 1438 1438 1438 1438 1438 1438 1438 1439 1439 1439
1475 1470 1468 1466 1466 1466 1465 1464 1463 1462 1461 1459 1458 1456 1455 1453 1452 1450 1449 1447 1446 1445 1444 1443 1442 1441 1440 1440 1439 1438 1438 1437 1437 1437 1437 1437 1437 1437 1437 1437 1438 1438 1437 1438
1469 1466 1466 1464 1463 1463 1462 1461 1460 1459 1458 1457 1456 1454 1453 1451 1450 1449 1447 1446 1445 1444 1443 1442 1441 1440 1440 1439 1438 1437 1437 1436 1437 1437 1436 1436 1436 1436 1436 1437 1436 1436 1436 1436
1463 1462 1462 1461 1460 1460 1459 1458 1457 1456 1455 1454 1453 1452 1451 1449 1448 1447 1446 1445 1444 1443 1442 1441 1440 1439 1439 1438 1437 1437 1436 1436 1436 1436 1436 1436 1435 1435 1434 1435 1435 1435 1434 1434
1459 1459 1458 1458 1458 1457 1456 1455 1455 1454 1453 1452 1451 1450 1449 1447 1446 1445 1444 1443 1442 1441 1441 1440 1439 1438 1438 1437 1437 1436 1436 1436 1435 1435 1435 1435 1435 1434 1434 1433 1432 1432 1433 1433
1455 1456 1456 1455 1455 1454 1453 1453 1452 1451 1450 1449 1449 1448 1446 1445 1444 1443 1443 1442 1441 1440 1439 1439 1438 1437 1437 1436 1436 1435 1435 1435 1435 1434 1434 1434 1433 1433 1433 1432 1432 1431 1431 1431
1451 1452 1452 1452 1451 1451 1451 1450 1449 1448 1448 1447 1446 1445 1445 1444 1443 1442 1441 1440 1440 1439 1438 1437 1437 1436 1436 1435 1435 1435 1434 1434 1434 1433 1433 1433 1432 1432 1431 1431 1431 1430 1430 1430
1448 1448 1448 1448 1448 1448 1448 1447 1447 1446 1446 1445 1444 1443 1443 1442 1441 1440 1440 1439 1438 1438 1437 1436 1436 1435 1435 1434 1434 1434 1433 1433 1433 1432 1432 1431 1431 1430 1430 1430 1430 1429 1429 1429
1444 1445 1445 1445 1445 1445 1445 1445 1445 1444 1443 1443 1442 1441 1441 1440 1439 1438 1438 1437 1437 1436 1436 1435 1434 1434 1434 1433 1433 1433 1432 1432 1432 1431 1431 1430 1430 1429 1429 1428 1428 1428 1428 1428
1441 1442 1442 1442 1442 1442 1442 1442 1442 1441 1441 1441 1440 1439 1439 1438 1438 1437 1437 1436 1435 1434 1434 1434 1433 1433 1432 1432 1432 1431 1431 1431 1430 1430 1430 1429 1428 1428 1427 1427 1427 1427 1427 1427
1438 1439 1440 1440 1440 1440 1440 1440 1439 1439 1439 1439 1438 1437 1437 1436 1436 1435 1435 1434 1433 1433 1433 1432 1432 1431 1431 1430 1430 1429 1429 1429 1429 1429 1428 1428 1427 1427 1426 1426 1426 1425 1425 1426
1436 1437 1437 1437 1438 1438 1438 1438 1437 1437 1437 1437 1436 1436 1435 1435 1434 1434 1433 1432 1432 1432 1431 1430 1430 1429 1429 1429 1428 1428 1428 1428 1427 1427 1427 1426 1426 1425 1425 1425 1424 1424 1424 1424
1434 1435 1435 1435 1435 1435 1436 1436 1436 1435 1435 1435 1434 1434 1434 1433 1433 1432 1432 1431 1430 1430 1429 1429 1428 1428 1428 1427 1427 1426 1426 1426 1426 1425 1425 1425 1424 1424 1423 1423 1423 1423 1423 1423
1432 1433 1433 1433 1433 1433 1433 1434 1434 1434 1433 1433 1433 1432 1432 1432 1431 1430 1430 1430 1429 1428 1428 1427 1427 1426 1426 1426 1425 1425 1424 1424 1424 1424 1423 1423 1423 1422 1422 1422 1422 1422 1422 1422
1431 1431 1431 1431 1431 1431 1431 1432 1432 1432 1432 1431 1431 1431 1431 1430 1430 1429 1429 1428 1427 1427 1426 1425 1425 1425 1424 1424 1423 1423 1423 1422 1422 1422 1422 1421 1421 1421 1421 1421 1421 1421 1421 1421
1429 1429 1429 1429 1429 1429 1429 1430 1430 1430 1430 1430 1430 1430 1429 1429 1428 1428 1427 1426 1426 1425 1424 1424 1424 1423 1422 1422 1421 1421 1421 1420 1420 1420 1420 1420 1419 1419 1419 1419 1419 1420 1420 1420
1426 1427 1427 1427 1427 1428 1428 1428 1428 1428 1428 1428 1428 1428 1427 1427 1427 1426 1425 1425 1424 1424 1423 1422 1422 1421 1421 1420 1420 1419 1419 1418 1418 1418 1418 1418 1418 1418 1418 1418 1418 1418 1418 1418
1425 1425 1425 1426 1426 1426 1426 1426 1426 1426 1426 1426 1426 1426 1426 1425 1425 1424 1424 1423 1423 1422 1422 1421 1421 1420 1420 1419 1418 1418 1417 1417 1417 1417 1417 1417 1417 1417 1417 1417 1417 1417 1417 1417